Time,TemperatureF,DewpointF,PressureIn,WindDirection,WindDirectionDegrees,WindSpeedMPH,WindSpeedGustMPH,Humidity,HourlyPrecipIn,Conditions,Clouds,dailyrainin,SoftwareType,DateUTC
2013-01-12 00:00:00,60.6,60.6,30.16,SW,236,9.0,16.0,100,0.05,RA,BKN,0.00,WeatherDisplay:10.37,2013-01-12 05:00:00,
2013-01-12 00:02:00,60.6,60.6,30.16,SW,224,3.6,6.9,100,0.04,-RA,BKN,0.00,WeatherDisplay:10.37,2013-01-12 05:02:00,
2013-01-12 00:07:00,60.6,60.6,30.16,SSW,205,5.1,9.2,100,0.04,-RA,BKN,0.01,WeatherDisplay:10.37,2013-01-12 05:07:00,
2013-01-12 00:12:00,60.7,60.7,30.16,West,277,9.3,13.8,100,0.06,-RA,BKN,0.02,WeatherDisplay:10.37,2013-01-12 05:12:00,
2013-01-12 00:17:00,60.7,60.7,30.16,SW,236,12.9,15.0,100,0.06,-RA,BKN,0.02,WeatherDisplay:10.37,2013-01-12 05:17:00,
2013-01-12 00:22:00,60.8,60.8,30.16,SW,227,11.7,11.7,100,0.07,-RA,BKN,0.04,WeatherDisplay:10.37,2013-01-12 05:22:00,
2013-01-12 00:28:00,60.8,60.8,30.16,WSW,247,9.9,15.0,100,0.07,-RA,BKN,0.05,WeatherDisplay:10.37,2013-01-12 05:28:00,
2013-01-12 00:33:00,60.9,60.9,30.16,WSW,243,8.9,12.1,100,0.09,-RA,BKN,0.07,WeatherDisplay:10.37,2013-01-12 05:33:00,
2013-01-12 00:38:00,60.9,60.9,30.16,WSW,250,9.2,12.7,100,0.11,-RA,BKN,0.08,WeatherDisplay:10.37,2013-01-12 05:38:00,
2013-01-12 00:43:00,60.9,60.9,30.15,SW,232,5.5,12.7,100,0.10,-RA,BKN,0.08,WeatherDisplay:10.37,2013-01-12 05:43:00,
2013-01-12 00:48:00,60.9,60.9,30.15,SW,221,5.9,13.8,100,0.11,-RA,BKN,0.09,WeatherDisplay:10.37,2013-01-12 05:48:00,
2013-01-12 00:53:00,61.0,61.0,30.15,SW,215,14.2,17.3,100,0.11,-RA,BKN,0.10,WeatherDisplay:10.37,2013-01-12 05:53:00,
2013-01-12 00:58:00,61.0,61.0,30.15,SSW,199,11.0,13.8,100,0.12,-RA,BKN,0.11,WeatherDisplay:10.37,2013-01-12 05:58:00,
2013-01-12 01:03:00,61.0,61.0,30.15,SW,231,6.9,9.2,100,0.12,RA,BKN,0.12,WeatherDisplay:10.37,2013-01-12 06:03:00,
2013-01-12 01:08:00,61.0,61.0,30.15,WNW,283,0.8,4.8,100,0.11,RA,BKN,0.12,WeatherDisplay:10.37,2013-01-12 06:08:00,
2013-01-12 01:13:00,61.0,61.0,30.16,SSW,212,13.1,19.6,100,0.11,RA,BKN,0.13,WeatherDisplay:10.37,2013-01-12 06:13:00,
2013-01-12 01:18:00,61.0,61.0,30.15,WSW,241,9.9,12.1,100,0.11,RA,BKN,0.13,WeatherDisplay:10.37,2013-01-12 06:18:00,
2013-01-12 01:23:00,60.9,60.9,30.15,WSW,257,6.7,8.5,100,0.09,OVC,BKN,0.13,WeatherDisplay:10.37,2013-01-12 06:23:00,
2013-01-12 01:28:00,61.0,61.0,30.15,WSW,255,7.1,13.3,100,0.09,RA,BKN,0.14,WeatherDisplay:10.37,2013-01-12 06:28:00,
2013-01-12 01:33:00,60.9,60.9,30.15,SW,216,10.3,15.0,100,0.07,RA,BKN,0.14,WeatherDisplay:10.37,2013-01-12 06:33:00,
2013-01-12 01:38:00,60.9,60.9,30.15,SSW,210,12.1,18.4,100,0.06,OVC,BKN,0.14,WeatherDisplay:10.37,2013-01-12 06:38:00,
2013-01-12 01:44:00,60.9,60.9,30.15,WSW,243,4.6,13.8,100,0.06,OVC,BKN,0.14,WeatherDisplay:10.37,2013-01-12 06:44:00,
2013-01-12 01:49:00,61.0,61.0,30.15,SW,231,6.8,9.2,100,0.06,RA,BKN,0.15,WeatherDisplay:10.37,2013-01-12 06:49:00,
2013-01-12 01:54:00,61.0,61.0,30.16,WSW,240,6.3,10.4,100,0.06,RA,BKN,0.16,WeatherDisplay:10.37,2013-01-12 06:54:00,
2013-01-12 01:59:00,61.0,61.0,30.16,South,191,6.9,13.8,100,0.05,RA,BKN,0.16,WeatherDisplay:10.37,2013-01-12 06:59:00,
2013-01-12 02:04:00,61.0,61.0,30.15,SW,215,12.7,15.7,100,0.04,-RA,BKN,0.16,WeatherDisplay:10.37,2013-01-12 07:04:00,
2013-01-12 02:09:00,61.0,61.0,30.16,West,260,6.2,10.4,100,0.04,-RA,BKN,0.16,WeatherDisplay:10.37,2013-01-12 07:09:00,
2013-01-12 02:14:00,61.0,61.0,30.16,WSW,244,7.5,11.5,100,0.04,-RA,BKN,0.17,WeatherDisplay:10.37,2013-01-12 07:14:00,
2013-01-12 02:19:00,61.0,61.0,30.16,SW,235,8.8,12.7,100,0.04,-RA,BKN,0.17,WeatherDisplay:10.37,2013-01-12 07:19:00,
2013-01-12 02:24:00,61.0,61.0,30.16,SSW,204,5.4,10.4,100,0.05,-RA,BKN,0.18,WeatherDisplay:10.37,2013-01-12 07:24:00,
2013-01-12 02:29:00,61.0,61.0,30.17,WSW,251,10.0,13.8,100,0.04,-RA,BKN,0.18,WeatherDisplay:10.37,2013-01-12 07:29:00,
2013-01-12 02:34:00,61.0,61.0,30.16,WSW,239,9.7,12.7,100,0.04,-RA,BKN,0.18,WeatherDisplay:10.37,2013-01-12 07:34:00,
2013-01-12 02:39:00,60.9,60.9,30.16,SW,230,6.7,15.0,100,0.04,-RA,BKN,0.18,WeatherDisplay:10.37,2013-01-12 07:39:00,
2013-01-12 02:44:00,60.9,60.9,30.16,WSW,239,7.6,10.9,100,0.04,-RA,BKN,0.18,WeatherDisplay:10.37,2013-01-12 07:44:00,
2013-01-12 02:49:00,60.9,60.9,30.16,SW,227,7.9,10.9,100,0.03,-RA,BKN,0.18,WeatherDisplay:10.37,2013-01-12 07:49:00,
2013-01-12 02:54:00,60.9,60.9,30.16,West,268,2.2,10.4,100,0.02,-RA,BKN,0.18,WeatherDisplay:10.37,2013-01-12 07:54:00,
2013-01-12 03:00:00,60.9,60.9,30.16,WSW,253,6.8,8.5,100,0.02,-RA,BKN,0.18,WeatherDisplay:10.37,2013-01-12 08:00:00,
2013-01-12 03:05:00,60.9,60.9,30.16,SSE,166,0.9,4.6,100,0.02,OVC,BKN,0.18,WeatherDisplay:10.37,2013-01-12 08:05:00,
2013-01-12 03:10:00,60.8,60.8,30.16,WSW,243,3.0,11.0,100,0.02,OVC,BKN,0.18,WeatherDisplay:10.37,2013-01-12 08:10:00,
2013-01-12 03:15:00,60.8,60.8,30.16,WSW,238,4.7,8.1,100,0.01,OVC,BKN,0.18,WeatherDisplay:10.37,2013-01-12 08:15:00,
2013-01-12 03:20:00,60.8,60.8,30.16,WSW,251,9.2,15.0,100,0.01,OVC,BKN,0.18,WeatherDisplay:10.37,2013-01-12 08:20:00,
2013-01-12 03:25:00,60.8,60.8,30.16,SW,231,1.9,6.9,100,0.00,OVC,BKN,0.18,WeatherDisplay:10.37,2013-01-12 08:25:00,
2013-01-12 03:30:00,60.8,60.8,30.16,SSW,209,7.9,10.4,100,0.00,OVC,BKN,0.18,WeatherDisplay:10.37,2013-01-12 08:30:00,
2013-01-12 03:35:00,60.7,60.7,30.16,WSW,243,6.4,12.1,100,0.00,OVC,BKN,0.18,WeatherDisplay:10.37,2013-01-12 08:35:00,
2013-01-12 03:40:00,60.7,60.7,30.16,SSW,208,5.2,10.4,100,0.00,OVC,BKN,0.18,WeatherDisplay:10.37,2013-01-12 08:40:00,
2013-01-12 03:45:00,60.7,60.7,30.16,SW,231,10.4,15.0,100,0.00,OVC,BKN,0.18,WeatherDisplay:10.37,2013-01-12 08:45:00,
2013-01-12 03:50:00,60.7,60.7,30.15,West,264,6.5,8.1,100,0.00,OVC,BKN,0.18,WeatherDisplay:10.37,2013-01-12 08:50:00,
2013-01-12 03:55:00,60.7,60.7,30.16,SW,224,1.5,3.6,100,0.00,OVC,BKN,0.18,WeatherDisplay:10.37,2013-01-12 08:55:00,
2013-01-12 04:00:00,60.7,60.7,30.15,SW,222,4.1,5.8,100,0.00,OVC,BKN,0.18,WeatherDisplay:10.37,2013-01-12 09:00:00,
2013-01-12 04:05:00,60.7,60.7,30.15,WSW,239,7.7,10.4,100,0.00,OVC,BKN,0.18,WeatherDisplay:10.37,2013-01-12 09:05:00,
2013-01-12 04:10:00,60.6,60.6,30.15,SW,230,8.8,10.4,100,0.00,OVC,BKN,0.18,WeatherDisplay:10.37,2013-01-12 09:10:00,
2013-01-12 04:16:00,60.6,60.6,30.15,WSW,251,1.5,8.1,100,0.00,OVC,BKN,0.18,WeatherDisplay:10.37,2013-01-12 09:16:00,
2013-01-12 04:21:00,60.6,60.6,30.15,WSW,255,5.2,9.2,100,0.00,OVC,BKN,0.18,WeatherDisplay:10.37,2013-01-12 09:21:00,
2013-01-12 04:26:00,60.6,60.6,30.15,WSW,247,12.6,15.0,100,0.00,OVC,BKN,0.18,WeatherDisplay:10.37,2013-01-12 09:26:00,
2013-01-12 04:31:00,60.6,60.6,30.15,WNW,290,11.2,12.7,100,0.00,OVC,BKN,0.18,WeatherDisplay:10.37,2013-01-12 09:31:00,
2013-01-12 04:36:00,60.6,60.6,30.15,West,271,7.2,10.4,100,0.00,OVC,BKN,0.18,WeatherDisplay:10.37,2013-01-12 09:36:00,
2013-01-12 04:41:00,60.6,60.6,30.16,SW,230,7.5,10.4,100,0.00,OVC,BKN,0.18,WeatherDisplay:10.37,2013-01-12 09:41:00,
2013-01-12 04:46:00,60.5,60.5,30.15,SW,214,4.6,8.1,100,0.00,OVC,BKN,0.18,WeatherDisplay:10.37,2013-01-12 09:46:00,
2013-01-12 04:51:00,60.5,60.5,30.16,SW,236,5.6,7.3,100,0.00,OVC,BKN,0.18,WeatherDisplay:10.37,2013-01-12 09:51:00,
2013-01-12 04:56:00,60.5,60.5,30.15,SSW,207,5.1,9.2,100,0.00,OVC,BKN,0.18,WeatherDisplay:10.37,2013-01-12 09:56:00,
2013-01-12 05:01:00,60.5,60.5,30.15,SW,214,8.0,8.1,100,0.00,-RA,BKN,0.18,WeatherDisplay:10.37,2013-01-12 10:01:00,
2013-01-12 05:06:00,60.5,60.5,30.15,WSW,243,11.4,13.8,100,0.00,-RA,BKN,0.18,WeatherDisplay:10.37,2013-01-12 10:06:00,
2013-01-12 05:11:00,60.5,60.5,30.15,SW,234,11.6,12.1,100,0.00,-RA,BKN,0.18,WeatherDisplay:10.37,2013-01-12 10:11:00,
2013-01-12 05:16:00,60.4,60.4,30.14,WSW,241,3.0,9.7,100,0.00,-RA,BKN,0.18,WeatherDisplay:10.37,2013-01-12 10:16:00,
2013-01-12 05:21:00,60.4,60.4,30.14,WSW,246,5.7,5.8,100,0.00,-RA,BKN,0.18,WeatherDisplay:10.37,2013-01-12 10:21:00,
2013-01-12 05:26:00,60.4,60.4,30.13,SW,215,5.0,8.1,100,0.00,-RA,BKN,0.18,WeatherDisplay:10.37,2013-01-12 10:26:00,
2013-01-12 05:32:00,60.4,60.4,30.13,WSW,254,4.1,5.8,100,0.01,-RA,BKN,0.19,WeatherDisplay:10.37,2013-01-12 10:32:00,
2013-01-12 05:37:00,60.4,60.4,30.13,West,270,2.5,2.5,100,0.01,-RA,BKN,0.19,WeatherDisplay:10.37,2013-01-12 10:37:00,
2013-01-12 05:42:00,60.3,60.3,30.13,SW,219,3.2,5.8,100,0.01,-RA,BKN,0.19,WeatherDisplay:10.37,2013-01-12 10:42:00,
2013-01-12 05:47:00,60.3,60.3,30.13,SW,228,0.5,1.2,100,0.01,-RA,BKN,0.19,WeatherDisplay:10.37,2013-01-12 10:47:00,
2013-01-12 05:52:00,60.3,60.3,30.13,South,179,2.1,6.9,100,0.01,-RA,BKN,0.19,WeatherDisplay:10.37,2013-01-12 10:52:00,
2013-01-12 05:57:00,60.2,60.2,30.13,SW,218,6.7,12.1,100,0.01,-RA,BKN,0.19,WeatherDisplay:10.37,2013-01-12 10:57:00,
2013-01-12 06:02:00,60.2,60.2,30.13,SSW,205,3.3,5.8,100,0.01,OVC,BKN,0.19,WeatherDisplay:10.37,2013-01-12 11:02:00,
2013-01-12 06:07:00,60.2,60.2,30.13,SW,229,3.6,7.3,100,0.01,OVC,BKN,0.19,WeatherDisplay:10.37,2013-01-12 11:07:00,
2013-01-12 06:12:00,60.2,60.2,30.14,SW,227,0.0,0.0,100,0.01,OVC,BKN,0.19,WeatherDisplay:10.37,2013-01-12 11:12:00,
2013-01-12 06:17:00,60.2,60.2,30.14,SW,227,0.0,0.0,100,0.01,OVC,BKN,0.19,WeatherDisplay:10.37,2013-01-12 11:17:00,
2013-01-12 06:22:00,60.2,60.2,30.14,SW,215,3.0,5.8,100,0.01,OVC,BKN,0.19,WeatherDisplay:10.37,2013-01-12 11:22:00,
2013-01-12 06:27:00,60.2,60.2,30.14,SSW,204,0.0,0.0,100,0.01,OVC,BKN,0.19,WeatherDisplay:10.37,2013-01-12 11:27:00,
2013-01-12 06:32:00,60.2,60.2,30.14,SSW,203,3.0,5.8,100,0.00,OVC,BKN,0.19,WeatherDisplay:10.37,2013-01-12 11:32:00,
2013-01-12 06:37:00,60.2,60.2,30.14,SW,220,4.3,7.3,100,0.00,OVC,BKN,0.19,WeatherDisplay:10.37,2013-01-12 11:37:00,
2013-01-12 06:42:00,60.2,60.2,30.14,SSW,200,3.8,5.5,100,0.00,OVC,BKN,0.19,WeatherDisplay:10.37,2013-01-12 11:42:00,
2013-01-12 06:48:00,60.2,60.2,30.14,SSW,207,5.8,6.9,100,0.00,OVC,BKN,0.19,WeatherDisplay:10.37,2013-01-12 11:48:00,
2013-01-12 06:53:00,60.2,60.2,30.14,South,191,5.1,6.6,100,0.00,OVC,BKN,0.19,WeatherDisplay:10.37,2013-01-12 11:53:00,
2013-01-12 06:58:00,60.2,60.2,30.15,South,180,4.3,4.6,100,0.00,OVC,BKN,0.19,WeatherDisplay:10.37,2013-01-12 11:58:00,
2013-01-12 07:03:00,60.3,60.3,30.15,SW,218,0.6,6.1,100,0.01,-RA,BKN,0.20,WeatherDisplay:10.37,2013-01-12 12:03:00,
2013-01-12 07:08:00,60.3,60.3,30.15,SSW,203,2.0,4.6,100,0.01,-RA,BKN,0.20,WeatherDisplay:10.37,2013-01-12 12:08:00,
2013-01-12 07:13:00,60.4,60.4,30.15,SSW,207,4.5,6.6,100,0.01,-RA,BKN,0.20,WeatherDisplay:10.37,2013-01-12 12:13:00,
2013-01-12 07:18:00,60.4,60.4,30.15,SW,231,7.0,9.2,100,0.01,-RA,BKN,0.20,WeatherDisplay:10.37,2013-01-12 12:18:00,
2013-01-12 07:23:00,60.5,60.5,30.15,WSW,250,5.4,9.2,100,0.01,-RA,BKN,0.20,WeatherDisplay:10.37,2013-01-12 12:23:00,
2013-01-12 07:28:00,60.5,60.5,30.15,SW,218,5.8,8.5,100,0.01,-RA,BKN,0.20,WeatherDisplay:10.37,2013-01-12 12:28:00,
2013-01-12 07:33:00,60.5,60.5,30.17,West,265,5.2,9.2,100,0.01,-RA,BKN,0.20,WeatherDisplay:10.37,2013-01-12 12:33:00,
2013-01-12 07:38:00,60.5,60.5,30.17,WSW,239,2.7,8.1,100,0.01,-RA,BKN,0.20,WeatherDisplay:10.37,2013-01-12 12:38:00,
2013-01-12 07:43:00,60.5,60.5,30.17,WSW,250,8.1,10.9,100,0.01,-RA,BKN,0.20,WeatherDisplay:10.37,2013-01-12 12:43:00,
2013-01-12 07:48:00,60.5,60.5,30.17,WSW,244,1.4,5.8,100,0.01,-RA,BKN,0.20,WeatherDisplay:10.37,2013-01-12 12:48:00,
2013-01-12 07:54:00,60.5,60.5,30.17,SW,234,0.8,3.5,100,0.01,-RA,BKN,0.20,WeatherDisplay:10.37,2013-01-12 12:54:00,
2013-01-12 07:59:00,60.5,60.5,30.17,WSW,245,0.4,12.7,100,0.01,-RA,BKN,0.20,WeatherDisplay:10.37,2013-01-12 12:59:00,
2013-01-12 08:04:00,60.6,60.6,30.17,SW,216,5.1,6.1,100,0.01,OVC,BKN,0.20,WeatherDisplay:10.37,2013-01-12 13:04:00,
2013-01-12 08:09:00,60.6,60.6,30.18,SW,230,0.1,1.2,100,0.02,RA,BKN,0.21,WeatherDisplay:10.37,2013-01-12 13:09:00,
2013-01-12 08:14:00,60.6,60.6,30.17,WSW,237,0.0,4.6,100,0.01,RA,BKN,0.21,WeatherDisplay:10.37,2013-01-12 13:14:00,
2013-01-12 08:19:00,60.6,60.6,30.18,SSW,209,4.5,5.8,100,0.01,OVC,BKN,0.21,WeatherDisplay:10.37,2013-01-12 13:19:00,
2013-01-12 08:24:00,60.7,60.7,30.18,SSW,212,3.8,3.8,100,0.01,OVC,BKN,0.21,WeatherDisplay:10.37,2013-01-12 13:24:00,
2013-01-12 08:29:00,60.7,60.7,30.17,SSW,200,0.0,1.1,100,0.01,OVC,BKN,0.21,WeatherDisplay:10.37,2013-01-12 13:29:00,
2013-01-12 08:34:00,60.7,60.7,30.18,SSW,209,3.1,3.6,100,0.01,OVC,BKN,0.21,WeatherDisplay:10.37,2013-01-12 13:34:00,
2013-01-12 08:39:00,60.7,60.7,30.18,SSW,209,0.0,0.0,100,0.01,OVC,BKN,0.21,WeatherDisplay:10.37,2013-01-12 13:39:00,
2013-01-12 08:44:00,60.8,60.8,30.18,SSW,208,3.9,4.8,100,0.01,OVC,BKN,0.21,WeatherDisplay:10.37,2013-01-12 13:44:00,
2013-01-12 08:49:00,60.8,60.8,30.18,SSW,209,1.0,3.5,100,0.01,OVC,BKN,0.21,WeatherDisplay:10.37,2013-01-12 13:49:00,
2013-01-12 08:54:00,60.8,60.8,30.18,SW,227,4.8,6.1,100,0.01,OVC,BKN,0.21,WeatherDisplay:10.37,2013-01-12 13:54:00,
2013-01-12 08:59:00,60.8,60.8,30.19,SW,227,0.6,3.6,100,0.01,OVC,BKN,0.21,WeatherDisplay:10.37,2013-01-12 13:59:00,
2013-01-12 09:04:00,60.9,60.9,30.19,SSW,209,2.0,6.1,100,0.01,OVC,BKN,0.21,WeatherDisplay:10.37,2013-01-12 14:04:00,
2013-01-12 09:10:00,61.0,61.0,30.19,SSW,207,5.3,7.7,100,0.01,RA,BKN,0.22,WeatherDisplay:10.37,2013-01-12 14:10:00,
2013-01-12 09:15:00,61.1,61.1,30.19,SSW,202,4.4,5.8,100,0.01,RA,BKN,0.22,WeatherDisplay:10.37,2013-01-12 14:15:00,
2013-01-12 09:20:00,61.2,61.2,30.19,SW,225,0.0,0.0,100,0.01,OVC,BKN,0.22,WeatherDisplay:10.37,2013-01-12 14:20:00,
2013-01-12 09:25:00,61.2,61.2,30.19,SSW,199,2.0,5.8,100,0.01,OVC,BKN,0.22,WeatherDisplay:10.37,2013-01-12 14:25:00,
2013-01-12 09:30:00,61.2,61.2,30.20,SSW,205,1.0,6.0,100,0.01,OVC,BKN,0.22,WeatherDisplay:10.37,2013-01-12 14:30:00,
2013-01-12 09:35:00,61.3,61.3,30.20,WSW,238,0.0,0.0,100,0.01,OVC,BKN,0.22,WeatherDisplay:10.37,2013-01-12 14:35:00,
2013-01-12 09:40:00,61.4,61.4,30.20,SSW,200,0.5,4.6,100,0.01,OVC,BKN,0.22,WeatherDisplay:10.37,2013-01-12 14:40:00,
2013-01-12 09:45:00,61.5,61.5,30.19,WSW,238,2.8,5.8,100,0.01,OVC,BKN,0.22,WeatherDisplay:10.37,2013-01-12 14:45:00,
2013-01-12 09:50:00,61.5,61.5,30.20,SW,235,0.1,2.3,100,0.01,OVC,BKN,0.22,WeatherDisplay:10.37,2013-01-12 14:50:00,
2013-01-12 09:55:00,61.4,61.4,30.20,WSW,237,4.8,5.8,100,0.01,OVC,BKN,0.22,WeatherDisplay:10.37,2013-01-12 14:55:00,
2013-01-12 10:00:00,61.4,61.4,30.20,WSW,238,0.0,0.0,100,0.01,OVC,BKN,0.22,WeatherDisplay:10.37,2013-01-12 15:00:00,
2013-01-12 10:05:00,61.3,61.3,30.20,SSW,197,0.0,0.0,100,0.01, +DZ,BKN,0.22,WeatherDisplay:10.37,2013-01-12 15:05:00,
2013-01-12 10:10:00,61.3,61.3,30.20,SW,219,6.5,8.1,100,0.00, +DZ,BKN,0.22,WeatherDisplay:10.37,2013-01-12 15:10:00,
2013-01-12 10:15:00,61.4,61.4,30.20,SSW,197,4.9,8.1,100,0.01, +DZ,BKN,0.23,WeatherDisplay:10.37,2013-01-12 15:15:00,
2013-01-12 10:21:00,61.5,61.5,30.20,SW,235,5.3,8.5,100,0.01, +DZ,BKN,0.23,WeatherDisplay:10.37,2013-01-12 15:21:00,
2013-01-12 10:26:00,61.6,61.6,30.19,South,187,4.6,8.1,100,0.01, +DZ,BKN,0.23,WeatherDisplay:10.37,2013-01-12 15:26:00,
2013-01-12 10:31:00,61.6,61.6,30.19,South,186,2.0,5.8,100,0.01, +DZ,BKN,0.23,WeatherDisplay:10.37,2013-01-12 15:31:00,
2013-01-12 10:36:00,61.6,61.6,30.19,SSW,200,1.4,4.6,100,0.01, +DZ,BKN,0.23,WeatherDisplay:10.37,2013-01-12 15:36:00,
2013-01-12 10:41:00,61.6,61.6,30.19,SSW,212,1.1,6.1,100,0.01, +DZ,BKN,0.23,WeatherDisplay:10.37,2013-01-12 15:41:00,
2013-01-12 10:46:00,61.6,61.6,30.18,SSW,193,1.2,5.8,100,0.01, +DZ,BKN,0.23,WeatherDisplay:10.37,2013-01-12 15:46:00,
2013-01-12 10:52:00,61.7,61.7,30.18,SSW,200,2.2,6.9,100,0.01, +DZ,BKN,0.23,WeatherDisplay:10.37,2013-01-12 15:52:00,
2013-01-12 10:57:00,62.0,62.0,30.19,SSW,203,0.0,1.1,100,0.01, +DZ,BKN,0.23,WeatherDisplay:10.37,2013-01-12 15:57:00,
2013-01-12 11:02:00,62.2,62.2,30.19,SSW,203,0.1,0.0,100,0.01,OVC,BKN,0.23,WeatherDisplay:10.37,2013-01-12 16:02:00,
2013-01-12 11:07:00,62.5,62.5,30.18,SW,214,0.2,4.6,100,0.01,OVC,BKN,0.23,WeatherDisplay:10.37,2013-01-12 16:07:00,
2013-01-12 11:12:00,62.5,62.5,30.19,SSW,207,1.3,3.3,100,0.01,OVC,BKN,0.23,WeatherDisplay:10.37,2013-01-12 16:12:00,
2013-01-12 11:17:00,62.6,62.6,30.18,SSW,205,0.9,4.6,100,0.01,OVC,BKN,0.23,WeatherDisplay:10.37,2013-01-12 16:17:00,
2013-01-12 11:23:00,62.7,61.8,30.18,SSW,203,0.2,7.3,97,0.00,OVC,BKN,0.23,WeatherDisplay:10.37,2013-01-12 16:23:00,
2013-01-12 11:28:00,62.9,62.9,30.18,SSW,204,0.3,4.6,100,0.00,OVC,BKN,0.23,WeatherDisplay:10.37,2013-01-12 16:28:00,
2013-01-12 11:33:00,63.1,62.2,30.18,South,178,0.9,2.3,97,0.00,OVC,BKN,0.23,WeatherDisplay:10.37,2013-01-12 16:33:00,
2013-01-12 11:38:00,63.3,62.4,30.17,SW,215,4.4,6.9,97,0.00,OVC,BKN,0.23,WeatherDisplay:10.37,2013-01-12 16:38:00,
2013-01-12 11:43:00,63.5,62.6,30.17,SW,224,6.2,6.2,97,0.00,OVC,BKN,0.23,WeatherDisplay:10.37,2013-01-12 16:43:00,
2013-01-12 11:48:00,63.6,62.4,30.17,SSW,201,5.3,8.1,96,0.00,OVC,BKN,0.23,WeatherDisplay:10.37,2013-01-12 16:48:00,
2013-01-12 11:53:00,63.6,62.1,30.17,SW,216,8.5,10.9,95,0.00,OVC,BKN,0.23,WeatherDisplay:10.37,2013-01-12 16:53:00,
2013-01-12 11:58:00,63.5,62.0,30.17,SSW,200,6.1,9.2,95,0.00,OVC,BKN,0.23,WeatherDisplay:10.37,2013-01-12 16:58:00,
2013-01-12 12:03:00,63.5,62.0,30.16,SSW,197,5.6,10.4,95,0.00,-RA,BKN,0.23,WeatherDisplay:10.37,2013-01-12 17:03:00,
2013-01-12 12:08:00,63.4,61.6,30.16,SSW,192,6.4,8.1,94,0.00,-RA,BKN,0.23,WeatherDisplay:10.37,2013-01-12 17:08:00,
2013-01-12 12:13:00,63.4,61.9,30.15,SW,228,2.0,3.5,95,0.00,-RA,BKN,0.23,WeatherDisplay:10.37,2013-01-12 17:13:00,
2013-01-12 12:18:00,63.4,61.9,30.15,WSW,239,4.9,7.3,95,0.00,-RA,BKN,0.23,WeatherDisplay:10.37,2013-01-12 17:18:00,
2013-01-12 12:23:00,63.4,61.9,30.15,WSW,245,3.3,3.5,95,0.00,-RA,BKN,0.23,WeatherDisplay:10.37,2013-01-12 17:23:00,
2013-01-12 12:28:00,63.5,62.0,30.15,SW,236,6.4,8.1,95,0.00,-RA,BKN,0.23,WeatherDisplay:10.37,2013-01-12 17:28:00,
2013-01-12 12:34:00,63.7,62.2,30.14,SW,222,6.9,9.2,95,0.00,-RA,BKN,0.23,WeatherDisplay:10.37,2013-01-12 17:34:00,
2013-01-12 12:39:00,63.9,62.7,30.14,WSW,243,6.1,8.5,96,0.00,-RA,BKN,0.23,WeatherDisplay:10.37,2013-01-12 17:39:00,
2013-01-12 12:44:00,64.0,62.5,30.14,WSW,247,6.9,10.4,95,0.00,-RA,BKN,0.23,WeatherDisplay:10.37,2013-01-12 17:44:00,
2013-01-12 12:49:00,64.1,62.6,30.14,WSW,239,7.5,8.1,95,0.00,-RA,BKN,0.23,WeatherDisplay:10.37,2013-01-12 17:49:00,
2013-01-12 12:54:00,64.3,62.8,30.14,SW,230,6.5,8.1,95,0.00,-RA,BKN,0.23,WeatherDisplay:10.37,2013-01-12 17:54:00,
2013-01-12 12:59:00,64.4,62.9,30.14,SSW,199,0.1,2.3,95,0.00,-RA,BKN,0.23,WeatherDisplay:10.37,2013-01-12 17:59:00,
2013-01-12 13:04:00,64.7,62.9,30.14,SW,227,2.6,9.2,94,0.00,OVC,BKN,0.23,WeatherDisplay:10.37,2013-01-12 18:04:00,
2013-01-12 13:09:00,64.8,63.0,30.13,West,272,5.7,6.9,94,0.00,OVC,BKN,0.23,WeatherDisplay:10.37,2013-01-12 18:09:00,
2013-01-12 13:14:00,64.9,62.8,30.13,WSW,237,1.5,6.9,93,0.00,OVC,BKN,0.23,WeatherDisplay:10.37,2013-01-12 18:14:00,
2013-01-12 13:19:00,65.0,62.9,30.13,WSW,245,3.4,9.2,93,0.00,OVC,BKN,0.23,WeatherDisplay:10.37,2013-01-12 18:19:00,
2013-01-12 13:24:00,65.1,63.0,30.13,WSW,243,8.5,9.7,93,0.00,OVC,BKN,0.23,WeatherDisplay:10.37,2013-01-12 18:24:00,
2013-01-12 13:29:00,65.1,62.7,30.13,WSW,241,2.6,6.9,92,0.00,OVC,BKN,0.23,WeatherDisplay:10.37,2013-01-12 18:29:00,
2013-01-12 13:34:00,65.3,63.2,30.12,WSW,252,7.1,8.5,93,0.00,OVC,BKN,0.23,WeatherDisplay:10.37,2013-01-12 18:34:00,
2013-01-12 13:39:00,65.4,63.0,30.12,WSW,257,1.6,8.1,92,0.00,OVC,BKN,0.23,WeatherDisplay:10.37,2013-01-12 18:39:00,
2013-01-12 13:44:00,65.4,63.0,30.12,SW,214,7.5,7.5,92,0.00,OVC,BKN,0.23,WeatherDisplay:10.37,2013-01-12 18:44:00,
2013-01-12 13:50:00,65.5,62.8,30.12,SW,235,9.2,10.4,91,0.00,OVC,BKN,0.23,WeatherDisplay:10.37,2013-01-12 18:50:00,
2013-01-12 13:55:00,65.5,63.1,30.12,SSW,204,3.4,5.8,92,0.00,OVC,BKN,0.23,WeatherDisplay:10.37,2013-01-12 18:55:00,
2013-01-12 14:00:00,65.6,62.9,30.12,WSW,244,2.0,10.0,91,0.00,OVC,BKN,0.23,WeatherDisplay:10.37,2013-01-12 19:00:00,
2013-01-12 14:05:00,65.7,63.3,30.12,WSW,258,4.5,5.8,92,0.00,OVC,BKN,0.23,WeatherDisplay:10.37,2013-01-12 19:05:00,
2013-01-12 14:10:00,65.8,63.1,30.12,WSW,250,6.0,11.0,91,0.00,OVC,BKN,0.23,WeatherDisplay:10.37,2013-01-12 19:10:00,
2013-01-12 14:15:00,65.9,63.5,30.12,WSW,245,5.1,8.1,92,0.00,OVC,BKN,0.23,WeatherDisplay:10.37,2013-01-12 19:15:00,
2013-01-12 14:20:00,66.0,63.3,30.12,WSW,249,6.4,10.9,91,0.00,OVC,BKN,0.23,WeatherDisplay:10.37,2013-01-12 19:20:00,
2013-01-12 14:25:00,66.0,63.3,30.12,SW,232,6.9,6.9,91,0.00,OVC,BKN,0.23,WeatherDisplay:10.37,2013-01-12 19:25:00,
2013-01-12 14:30:00,65.9,62.9,30.11,SW,218,3.2,7.3,90,0.00,OVC,BKN,0.23,WeatherDisplay:10.37,2013-01-12 19:30:00,
2013-01-12 14:35:00,65.9,62.9,30.12,WSW,241,1.9,5.8,90,0.00,OVC,BKN,0.23,WeatherDisplay:10.37,2013-01-12 19:35:00,
2013-01-12 14:40:00,65.9,62.9,30.11,WSW,246,6.2,6.9,90,0.00,OVC,BKN,0.23,WeatherDisplay:10.37,2013-01-12 19:40:00,
2013-01-12 14:45:00,65.9,62.9,30.11,SW,221,7.2,9.2,90,0.00,OVC,BKN,0.23,WeatherDisplay:10.37,2013-01-12 19:45:00,
2013-01-12 14:51:00,66.0,63.3,30.11,SW,234,0.7,2.4,91,0.00,OVC,BKN,0.23,WeatherDisplay:10.37,2013-01-12 19:51:00,
2013-01-12 14:56:00,66.1,63.1,30.11,West,264,0.3,1.1,90,0.00,OVC,BKN,0.23,WeatherDisplay:10.37,2013-01-12 19:56:00,
2013-01-12 15:01:00,66.1,62.8,30.11,WSW,255,0.9,4.6,89,0.00,SCT,BKN,0.23,WeatherDisplay:10.37,2013-01-12 20:01:00,
2013-01-12 15:06:00,66.1,62.8,30.11,WSW,257,0.1,1.1,89,0.00,SCT,BKN,0.23,WeatherDisplay:10.37,2013-01-12 20:06:00,
2013-01-12 15:11:00,66.1,62.8,30.11,WSW,257,0.1,1.1,89,0.00,SCT,BKN,0.23,WeatherDisplay:10.37,2013-01-12 20:11:00,
2013-01-12 15:16:00,66.2,62.9,30.11,WSW,257,0.7,3.6,89,0.00,SCT,BKN,0.23,WeatherDisplay:10.37,2013-01-12 20:16:00,
2013-01-12 15:21:00,66.2,62.9,30.11,WSW,257,2.7,4.6,89,0.00,SCT,BKN,0.23,WeatherDisplay:10.37,2013-01-12 20:21:00,
2013-01-12 15:26:00,66.2,62.5,30.11,WSW,257,0.0,0.0,88,0.00,SCT,BKN,0.23,WeatherDisplay:10.37,2013-01-12 20:26:00,
2013-01-12 15:31:00,66.2,62.9,30.11,WSW,257,0.0,0.0,89,0.00,SCT,BKN,0.23,WeatherDisplay:10.37,2013-01-12 20:31:00,
2013-01-12 15:36:00,66.1,62.4,30.11,SW,215,2.4,3.6,88,0.00,SCT,BKN,0.23,WeatherDisplay:10.37,2013-01-12 20:36:00,
2013-01-12 15:41:00,66.1,62.4,30.11,WSW,243,1.2,3.5,88,0.00,SCT,BKN,0.23,WeatherDisplay:10.37,2013-01-12 20:41:00,
2013-01-12 15:46:00,66.1,62.4,30.11,WSW,243,0.1,1.2,88,0.00,SCT,BKN,0.23,WeatherDisplay:10.37,2013-01-12 20:46:00,
2013-01-12 15:51:00,66.2,62.5,30.11,SSW,201,0.3,5.8,88,0.00,SCT,BKN,0.23,WeatherDisplay:10.37,2013-01-12 20:51:00,
2013-01-12 15:57:00,66.3,63.0,30.11,SW,228,0.1,2.3,89,0.00,SCT,BKN,0.23,WeatherDisplay:10.37,2013-01-12 20:57:00,
2013-01-12 16:02:00,66.4,62.4,30.10,WSW,248,1.1,5.8,87,0.00,BKN,,0.23,WeatherDisplay:10.37,2013-01-12 21:02:00,
2013-01-12 16:07:00,66.4,62.1,30.11,WSW,252,1.2,4.8,86,0.00,BKN,,0.23,WeatherDisplay:10.37,2013-01-12 21:07:00,
2013-01-12 16:12:00,66.4,62.1,30.10,SSW,205,1.7,4.6,86,0.00,BKN,,0.23,WeatherDisplay:10.37,2013-01-12 21:12:00,
2013-01-12 16:17:00,66.4,62.4,30.10,SW,232,0.0,1.1,87,0.00,BKN,,0.23,WeatherDisplay:10.37,2013-01-12 21:17:00,
2013-01-12 16:22:00,66.4,62.1,30.11,SW,232,3.9,5.8,86,0.00,BKN,,0.23,WeatherDisplay:10.37,2013-01-12 21:22:00,
2013-01-12 16:27:00,66.4,62.1,30.10,WSW,248,2.3,3.5,86,0.00,BKN,,0.23,WeatherDisplay:10.37,2013-01-12 21:27:00,
2013-01-12 16:32:00,66.4,62.4,30.10,SW,236,4.1,5.8,87,0.00,BKN,,0.23,WeatherDisplay:10.37,2013-01-12 21:32:00,
2013-01-12 16:37:00,66.5,62.2,30.10,SW,214,0.2,1.1,86,0.00,BKN,,0.23,WeatherDisplay:10.37,2013-01-12 21:37:00,
2013-01-12 16:42:00,66.4,61.8,30.10,SW,229,0.0,0.0,85,0.00,BKN,,0.23,WeatherDisplay:10.37,2013-01-12 21:42:00,
2013-01-12 16:47:00,66.4,61.8,30.10,SW,220,0.0,0.0,85,0.00,BKN,,0.23,WeatherDisplay:10.37,2013-01-12 21:47:00,
2013-01-12 16:52:00,66.2,61.6,30.10,WSW,239,4.2,4.6,85,0.00,BKN,,0.23,WeatherDisplay:10.37,2013-01-12 21:52:00,
2013-01-12 16:57:00,66.1,61.5,30.10,WSW,243,0.7,3.6,85,0.00,BKN,,0.23,WeatherDisplay:10.37,2013-01-12 21:57:00,
2013-01-12 17:02:00,65.9,61.3,30.10,WSW,256,0.8,4.6,85,0.00,BKN,,0.23,WeatherDisplay:10.37,2013-01-12 22:02:00,
2013-01-12 17:07:00,65.7,61.1,30.10,SSW,202,6.0,9.7,85,0.00,BKN,,0.23,WeatherDisplay:10.37,2013-01-12 22:07:00,
2013-01-12 17:13:00,65.5,60.5,30.10,SW,223,2.0,2.0,84,0.00,BKN,,0.23,WeatherDisplay:10.37,2013-01-12 22:13:00,
2013-01-12 17:18:00,65.3,60.7,30.10,SW,217,5.7,8.1,85,0.00,BKN,,0.23,WeatherDisplay:10.37,2013-01-12 22:18:00,
2013-01-12 17:23:00,65.1,60.5,30.11,SSW,210,3.9,6.9,85,0.00,BKN,,0.23,WeatherDisplay:10.37,2013-01-12 22:23:00,
2013-01-12 17:28:00,65.0,60.4,30.10,SSW,195,8.2,10.9,85,0.00,BKN,,0.23,WeatherDisplay:10.37,2013-01-12 22:28:00,
2013-01-12 17:33:00,64.8,60.2,30.10,SSW,207,6.0,9.2,85,0.00,BKN,,0.23,WeatherDisplay:10.37,2013-01-12 22:33:00,
2013-01-12 17:38:00,64.5,60.2,30.10,SSW,211,10.0,10.0,86,0.00,BKN,,0.23,WeatherDisplay:10.37,2013-01-12 22:38:00,
2013-01-12 17:43:00,64.3,59.7,30.10,SW,228,9.0,10.4,85,0.00,BKN,,0.23,WeatherDisplay:10.37,2013-01-12 22:43:00,
2013-01-12 17:48:00,64.0,59.4,30.10,SW,220,5.9,9.2,85,0.00,BKN,,0.23,WeatherDisplay:10.37,2013-01-12 22:48:00,
2013-01-12 17:53:00,63.8,59.2,30.09,SW,220,5.7,5.8,85,0.00,BKN,,0.23,WeatherDisplay:10.37,2013-01-12 22:53:00,
2013-01-12 17:58:00,63.6,58.7,30.09,SW,215,0.0,1.1,84,0.00,BKN,,0.23,WeatherDisplay:10.37,2013-01-12 22:58:00,
2013-01-12 18:03:00,63.4,58.5,30.09,SW,227,4.5,5.8,84,0.00,CLR,BKN,0.23,WeatherDisplay:10.37,2013-01-12 23:03:00,
2013-01-12 18:08:00,63.3,58.7,30.09,SW,221,7.2,9.2,85,0.00,CLR,BKN,0.23,WeatherDisplay:10.37,2013-01-12 23:08:00,
2013-01-12 18:13:00,63.1,58.5,30.10,WSW,256,2.2,3.5,85,0.00,CLR,BKN,0.23,WeatherDisplay:10.37,2013-01-12 23:13:00,
2013-01-12 18:18:00,63.0,58.4,30.10,SW,224,1.4,3.6,85,0.00,CLR,BKN,0.23,WeatherDisplay:10.37,2013-01-12 23:18:00,
2013-01-12 18:23:00,62.8,58.2,30.10,SW,215,3.1,7.3,85,0.00,CLR,BKN,0.23,WeatherDisplay:10.37,2013-01-12 23:23:00,
2013-01-12 18:29:00,62.6,58.0,30.10,SE,134,0.6,5.5,85,0.00,CLR,BKN,0.23,WeatherDisplay:10.37,2013-01-12 23:29:00,
2013-01-12 18:34:00,62.4,57.5,30.10,South,178,3.3,12.1,84,0.00,CLR,BKN,0.23,WeatherDisplay:10.37,2013-01-12 23:34:00,
2013-01-12 18:39:00,62.2,57.3,30.10,South,174,9.9,16.1,84,0.00,CLR,BKN,0.23,WeatherDisplay:10.37,2013-01-12 23:39:00,
2013-01-12 18:44:00,62.0,56.8,30.10,SW,221,12.4,16.1,83,0.00,CLR,BKN,0.23,WeatherDisplay:10.37,2013-01-12 23:44:00,
2013-01-12 18:49:00,62.0,56.8,30.10,South,184,14.2,16.5,83,0.00,CLR,BKN,0.23,WeatherDisplay:10.37,2013-01-12 23:49:00,
2013-01-12 18:54:00,62.0,56.8,30.10,South,187,14.1,23.0,83,0.00,CLR,BKN,0.23,WeatherDisplay:10.37,2013-01-12 23:54:00,
2013-01-12 18:59:00,62.0,56.8,30.10,South,180,13.5,19.6,83,0.00,CLR,BKN,0.23,WeatherDisplay:10.37,2013-01-12 23:59:00,
2013-01-12 19:04:00,61.7,56.5,30.10,SW,216,14.1,17.3,83,0.00,SCT,BKN,0.23,WeatherDisplay:10.37,2013-01-13 00:04:00,
2013-01-12 19:09:00,61.8,56.2,30.10,South,182,10.1,22.0,82,0.00,SCT,BKN,0.23,WeatherDisplay:10.37,2013-01-13 00:09:00,
2013-01-12 19:14:00,61.6,56.0,30.10,SSW,212,11.4,16.1,82,0.00,SCT,BKN,0.23,WeatherDisplay:10.37,2013-01-13 00:14:00,
2013-01-12 19:19:00,61.6,56.4,30.10,South,176,14.5,19.6,83,0.00,SCT,BKN,0.23,WeatherDisplay:10.37,2013-01-13 00:19:00,
2013-01-12 19:24:00,61.6,56.4,30.10,SSW,196,13.0,21.9,83,0.00,SCT,BKN,0.23,WeatherDisplay:10.37,2013-01-13 00:24:00,
2013-01-12 19:29:00,61.6,56.0,30.10,South,189,14.4,19.6,82,0.00,SCT,BKN,0.23,WeatherDisplay:10.37,2013-01-13 00:29:00,
2013-01-12 19:34:00,61.6,56.4,30.10,SW,216,7.9,13.8,83,0.00,SCT,BKN,0.23,WeatherDisplay:10.37,2013-01-13 00:34:00,
2013-01-12 19:39:00,61.6,56.4,30.10,SSW,209,12.7,15.7,83,0.00,SCT,BKN,0.23,WeatherDisplay:10.37,2013-01-13 00:39:00,
2013-01-12 19:45:00,61.3,56.1,30.10,SSW,193,11.1,16.1,83,0.00,SCT,BKN,0.23,WeatherDisplay:10.37,2013-01-13 00:45:00,
2013-01-12 19:50:00,61.2,56.0,30.11,South,177,7.5,12.7,83,0.00,SCT,BKN,0.23,WeatherDisplay:10.37,2013-01-13 00:50:00,
2013-01-12 19:55:00,61.3,56.1,30.11,South,189,5.0,8.1,83,0.00,SCT,BKN,0.23,WeatherDisplay:10.37,2013-01-13 00:55:00,
2013-01-12 20:00:00,61.2,56.3,30.11,SW,214,6.0,9.2,84,0.00,SCT,BKN,0.23,WeatherDisplay:10.37,2013-01-13 01:00:00,
2013-01-12 20:05:00,61.1,55.9,30.11,SSW,196,4.8,6.9,83,0.00,OVC,BKN,0.23,WeatherDisplay:10.37,2013-01-13 01:05:00,
2013-01-12 20:10:00,61.0,55.8,30.11,SW,215,0.2,2.3,83,0.00,OVC,BKN,0.23,WeatherDisplay:10.37,2013-01-13 01:10:00,
2013-01-12 20:15:00,60.9,55.7,30.11,SW,215,0.1,1.2,83,0.00,OVC,BKN,0.23,WeatherDisplay:10.37,2013-01-13 01:15:00,
2013-01-12 20:20:00,60.9,55.7,30.10,SW,214,0.0,1.1,83,0.00,OVC,BKN,0.23,WeatherDisplay:10.37,2013-01-13 01:20:00,
2013-01-12 20:25:00,61.0,56.1,30.10,ESE,116,3.4,8.1,84,0.00,OVC,BKN,0.23,WeatherDisplay:10.37,2013-01-13 01:25:00,
2013-01-12 20:30:00,60.9,56.0,30.10,NNE,16,0.4,2.2,84,0.00,OVC,BKN,0.23,WeatherDisplay:10.37,2013-01-13 01:30:00,
2013-01-12 20:35:00,60.8,55.9,30.10,NNE,16,0.0,0.0,84,0.00,OVC,BKN,0.23,WeatherDisplay:10.37,2013-01-13 01:35:00,
2013-01-12 20:40:00,60.7,55.8,30.10,NNE,16,0.0,0.0,84,0.00,OVC,BKN,0.23,WeatherDisplay:10.37,2013-01-13 01:40:00,
2013-01-12 20:45:00,60.6,56.1,30.10,NNE,31,0.0,1.1,85,0.00,OVC,BKN,0.23,WeatherDisplay:10.37,2013-01-13 01:45:00,
2013-01-12 20:50:00,60.5,56.0,30.10,NNE,31,0.0,0.0,85,0.00,OVC,BKN,0.23,WeatherDisplay:10.37,2013-01-13 01:50:00,
2013-01-12 20:55:00,60.3,55.8,30.11,NNE,31,0.0,1.1,85,0.00,OVC,BKN,0.23,WeatherDisplay:10.37,2013-01-13 01:55:00,
2013-01-12 21:01:00,60.2,56.0,30.11,NNE,31,0.0,0.0,86,0.00,OVC,BKN,0.23,WeatherDisplay:10.37,2013-01-13 02:01:00,
2013-01-12 21:06:00,60.0,55.8,30.10,NE,35,0.0,0.0,86,0.00,BKN,,0.23,WeatherDisplay:10.37,2013-01-13 02:06:00,
2013-01-12 21:11:00,59.9,55.7,30.10,NE,35,0.0,0.0,86,0.00,BKN,,0.23,WeatherDisplay:10.37,2013-01-13 02:11:00,
2013-01-12 21:16:00,59.8,55.9,30.10,NE,35,0.0,0.0,87,0.00,BKN,,0.23,WeatherDisplay:10.37,2013-01-13 02:16:00,
2013-01-12 21:21:00,59.5,55.6,30.10,NE,35,0.0,0.0,87,0.00,BKN,,0.23,WeatherDisplay:10.37,2013-01-13 02:21:00,
2013-01-12 21:26:00,59.3,55.4,30.10,ESE,111,0.2,1.1,87,0.00,BKN,,0.23,WeatherDisplay:10.37,2013-01-13 02:26:00,
2013-01-12 21:31:00,59.3,55.4,30.10,ESE,112,0.0,0.0,87,0.00,BKN,,0.23,WeatherDisplay:10.37,2013-01-13 02:31:00,
2013-01-12 21:36:00,59.2,55.3,30.10,ESE,112,0.0,1.1,87,0.00,BKN,,0.23,WeatherDisplay:10.37,2013-01-13 02:36:00,
2013-01-12 21:41:00,59.3,55.1,30.10,SSW,203,1.6,4.4,86,0.00,BKN,,0.23,WeatherDisplay:10.37,2013-01-13 02:41:00,
2013-01-12 21:46:00,59.5,55.3,30.10,West,259,3.3,5.8,86,0.00,BKN,,0.23,WeatherDisplay:10.37,2013-01-13 02:46:00,
2013-01-12 21:51:00,59.7,55.8,30.10,WSW,249,3.1,9.2,87,0.00,BKN,,0.23,WeatherDisplay:10.37,2013-01-13 02:51:00,
2013-01-12 21:56:00,59.8,55.6,30.10,SSW,195,9.2,12.7,86,0.00,BKN,,0.23,WeatherDisplay:10.37,2013-01-13 02:56:00,
2013-01-12 22:01:00,59.9,55.7,30.09,SW,236,3.2,8.5,86,0.00,BKN,,0.23,WeatherDisplay:10.37,2013-01-13 03:01:00,
2013-01-12 22:06:00,60.2,56.0,30.09,SW,214,0.3,5.8,86,0.00,BKN,,0.23,WeatherDisplay:10.37,2013-01-13 03:06:00,
2013-01-12 22:11:00,60.3,56.1,30.09,South,191,0.6,9.2,86,0.00,BKN,,0.23,WeatherDisplay:10.37,2013-01-13 03:11:00,
2013-01-12 22:17:00,60.4,56.2,30.09,SE,145,3.7,9.2,86,0.00,BKN,,0.23,WeatherDisplay:10.37,2013-01-13 03:17:00,
2013-01-12 22:22:00,60.4,56.2,30.09,South,191,0.9,4.4,86,0.00,BKN,,0.23,WeatherDisplay:10.37,2013-01-13 03:22:00,
2013-01-12 22:27:00,60.4,56.2,30.09,SSE,155,0.0,0.0,86,0.00,BKN,,0.23,WeatherDisplay:10.37,2013-01-13 03:27:00,
2013-01-12 22:32:00,60.3,56.1,30.09,SSE,155,0.0,0.0,86,0.00,BKN,,0.23,WeatherDisplay:10.37,2013-01-13 03:32:00,
2013-01-12 22:37:00,60.2,55.7,30.09,SSE,155,0.0,0.0,85,0.00,BKN,,0.23,WeatherDisplay:10.37,2013-01-13 03:37:00,
2013-01-12 22:42:00,60.2,56.0,30.09,SE,138,0.5,2.3,86,0.00,BKN,,0.23,WeatherDisplay:10.37,2013-01-13 03:42:00,
2013-01-12 22:47:00,60.2,56.0,30.09,South,184,1.4,4.6,86,0.00,BKN,,0.23,WeatherDisplay:10.37,2013-01-13 03:47:00,
2013-01-12 22:52:00,60.2,56.0,30.09,SW,230,2.6,10.9,86,0.00,BKN,,0.23,WeatherDisplay:10.37,2013-01-13 03:52:00,
2013-01-12 22:57:00,60.1,55.9,30.09,SW,224,8.9,10.4,86,0.00,BKN,,0.23,WeatherDisplay:10.37,2013-01-13 03:57:00,
2013-01-12 23:02:00,60.2,56.0,30.09,SSW,197,5.8,8.1,86,0.00,OVC,BKN,0.23,WeatherDisplay:10.37,2013-01-13 04:02:00,
2013-01-12 23:07:00,60.3,55.8,30.09,SW,225,4.4,14.5,85,0.00,OVC,BKN,0.23,WeatherDisplay:10.37,2013-01-13 04:07:00,
2013-01-12 23:12:00,60.4,55.9,30.09,SW,234,12.9,20.7,85,0.00,OVC,BKN,0.23,WeatherDisplay:10.37,2013-01-13 04:12:00,
2013-01-12 23:17:00,60.4,55.9,30.09,SW,220,4.7,5.8,85,0.00,OVC,BKN,0.23,WeatherDisplay:10.37,2013-01-13 04:17:00,
2013-01-12 23:22:00,60.4,55.9,30.10,SW,219,16.0,16.9,85,0.00,OVC,BKN,0.23,WeatherDisplay:10.37,2013-01-13 04:22:00,
2013-01-12 23:27:00,60.4,55.9,30.10,SSW,212,8.3,11.5,85,0.00,OVC,BKN,0.23,WeatherDisplay:10.37,2013-01-13 04:27:00,
2013-01-12 23:33:00,60.4,55.9,30.10,SW,220,5.8,9.2,85,0.00,OVC,BKN,0.23,WeatherDisplay:10.37,2013-01-13 04:33:00,
2013-01-12 23:38:00,60.5,55.6,30.10,SSW,207,5.7,5.8,84,0.00,OVC,BKN,0.23,WeatherDisplay:10.37,2013-01-13 04:38:00,
2013-01-12 23:43:00,60.7,55.8,30.09,SW,220,6.9,8.1,84,0.00,OVC,BKN,0.23,WeatherDisplay:10.37,2013-01-13 04:43:00,
2013-01-12 23:48:00,60.8,55.9,30.09,SSW,197,3.5,6.9,84,0.00,OVC,BKN,0.23,WeatherDisplay:10.37,2013-01-13 04:48:00,
2013-01-12 23:53:00,60.8,55.9,30.09,SW,218,4.8,8.5,84,0.00,OVC,BKN,0.23,WeatherDisplay:10.37,2013-01-13 04:53:00,
2013-01-12 23:58:00,60.8,55.9,30.09,SW,216,4.1,5.8,84,0.00,OVC,BKN,0.23,WeatherDisplay:10.37,2013-01-13 04:58:00,